Flag for Poland Weather past 2 weeks in Rybnik, Poland

Now
70 °F

Passing clouds.


Feels Like: 70 °F
Forecast: 54 / 71 °F
Wind: 16 mph from Southwest

Location: Katowice Airport

Current Time: Jul 29, 2015 at 1:51:17 PM

Latest Report: Jul 29, 2015 at 1:30 PM


Visibility: N/A

Pressure: 29.80 "Hg

Humidity: 40%

Dew point: 45 °F

Location of RybnikLocation

Historic Weather in Rybnik — Graph

°F

Rybnik temperature yesterday

Maximum temperature yesterday: 75 °F (at 3:00 PM)
Minimum temperature yesterday: 57 °F (at 2:00 AM)
Average temperature yesterday: 66 °F

Past Weeks' High & Low Weather Summary

 TemperatureHumidityPressure
High91 °F (Jul 25, 1:00 PM)100% (Jul 15, 11:30 PM)30.12 "Hg (Jul 15, 11:30 PM)
Low50 °F (Jul 16, 4:30 AM)31% (Jul 17, 2:30 PM)29.65 "Hg (Jul 27, 6:30 PM)
Average70 °F66%29.92 "Hg
* Reported Jul 14 1:00 PM — Jul 29 1:00 PM, Rybnik, Weather by CustomWeather, © 2015

Note: Actual official high and low records may vary slightly from our data, if they occured in-between our weather recording intervals... More about our weather records

Advertising

Rybnik weather history for previous 24 hours

 ConditionsComfort  
Time TempWeatherWind HumidityBarometerVisibility
1:00 PM
Wed, Jul 29
70 °FPassing clouds.14 mph40%29.80 "HgN/A
12:30 PM70 °FPassing clouds.16 mph43%29.80 "HgN/A
12:00 PM68 °FPassing clouds.15 mph46%29.80 "HgN/A
11:30 AM66 °FPassing clouds.15 mph49%29.80 "HgN/A
11:00 AM66 °FPassing clouds.13 mph56%29.83 "HgN/A
10:30 AM66 °FPassing clouds.13 mph52%29.83 "HgN/A
9:30 AM63 °FSunny.7 mph77%29.83 "Hg10 mi
9:00 AM61 °FSunny.6 mph83%29.83 "Hg10 mi
8:30 AM59 °FPassing clouds.3 mph88%29.83 "HgN/A
8:00 AM59 °FPassing clouds.3 mph88%29.83 "HgN/A
7:30 AM57 °FLight rain. Passing clouds.2 mph94%29.83 "HgN/A
7:00 AM57 °FLight rain. Passing clouds.1 mph88%29.83 "HgN/A
6:00 AM55 °FSprinkles. Passing clouds.2 mph94%29.83 "HgN/A
5:00 AM57 °FSprinkles. Passing clouds.1 mph88%29.80 "HgN/A
4:30 AM57 °FSprinkles. Passing clouds.6 mph88%29.80 "HgN/A
4:00 AM57 °FSprinkles. Passing clouds.2 mph88%29.80 "HgN/A
3:30 AM55 °FSprinkles. Passing clouds.1 mph88%29.80 "HgN/A
3:00 AM55 °FClear.1 mph88%29.80 "Hg10 mi
2:30 AM57 °FClear.1 mph82%29.80 "Hg10 mi
2:00 AM57 °FClear.No wind82%29.80 "Hg10 mi
1:30 AM57 °FClear.1 mph82%29.80 "Hg10 mi
1:00 AM57 °FClear.2 mph82%29.80 "Hg10 mi
12:30 AM57 °FClear.1 mph82%29.80 "Hg10 mi
12:00 AM57 °FClear.2 mph82%29.80 "Hg10 mi
11:30 PM
Tue, Jul 28
57 °FClear.1 mph77%29.80 "Hg10 mi
11:00 PM61 °FClear.3 mph68%29.77 "Hg10 mi
10:30 PM61 °FPassing clouds.3 mph68%29.77 "HgN/A
10:00 PM63 °FClear.3 mph64%29.77 "Hg10 mi
9:30 PM63 °FSunny.2 mph68%29.77 "Hg10 mi
9:00 PM63 °FSunny.2 mph68%29.77 "Hg10 mi
8:30 PM64 °FSunny.1 mph64%29.74 "Hg10 mi
8:00 PM66 °FSunny.2 mph60%29.74 "Hg10 mi
7:30 PM68 °FSunny.5 mph53%29.74 "Hg10 mi
7:00 PM68 °FSunny.7 mph53%29.74 "Hg10 mi
6:30 PM70 °FSunny.10 mph50%29.74 "Hg10 mi
6:00 PM70 °FPassing clouds.12 mph53%29.71 "HgN/A
5:30 PM70 °FSunny.21 mph53%29.71 "Hg10 mi
5:00 PM73 °FSunny.23 mph36%29.71 "Hg10 mi
4:30 PM75 °FSunny.23 mph36%29.71 "Hg10 mi
4:00 PM75 °FSunny.23 mph34%29.71 "Hg10 mi
3:30 PM75 °FPassing clouds.28 mph34%29.71 "HgN/A
3:00 PM75 °FSunny.26 mph36%29.71 "Hg10 mi
2:30 PM73 °FSunny.23 mph41%29.74 "Hg10 mi
2:00 PM73 °FSunny.22 mph44%29.74 "Hg10 mi
1:30 PM72 °FSunny.21 mph47%29.74 "Hg10 mi
1:00 PM72 °FSunny.21 mph44%29.74 "Hg10 mi
Weather by CustomWeather, © 2015

See weather overviewHow to use our weather pages